User: anonymous   Login
Location: Unspecified
(0.0000°N, 0.0000°E)
Time: 11:25:01
(UTC+00:00)
Language:

SL-4 R/B - Orbit

View from above orbital plane
View from above orbital plane
View from above satellite
View from above satellite

Ground track
Ground track

The orbit data is extracted from the following two-line orbital elements,

1 27818U 03023A   18018.22252252  .00000047  00000-0  34567-4 0  9994
2 27818  82.9480 238.4783 0030533 203.5771 156.3993 13.72152541732428
Epoch (UTC): 18 January 2018 05:20:25
Eccentricity: 0.0030533
inclination: 82.9480°
perigee height: 969 km
apogee height: 1014 km
right ascension of ascending node: 238.4783°
argument of perigee: 203.5771°
revolutions per day: 13.72152541
mean anomaly at epoch: 156.3993°
orbit number at epoch: 73242

The dashed part of the orbit path shows where the satellite is in the earth's shadow,  

DLR